TimeMST,TemperatureF,Dew PointF,Humidity,Sea Level PressureIn,VisibilityMPH,Wind Direction,Wind SpeedMPH,Gust SpeedMPH,PrecipitationIn,Events,Conditions,WindDirDegrees,DateUTC
12:53 AM,12.9,8.1,81,30.53,10.0,East,3.5,-,N/A,,Clear,80,2012-11-12 07:53:00
1:53 AM,12.0,7.0,80,30.53,10.0,Calm,Calm,-,N/A,,Clear,0,2012-11-12 08:53:00
2:53 AM,10.9,6.1,81,30.52,10.0,NE,3.5,-,N/A,,Clear,40,2012-11-12 09:53:00
3:53 AM,10.9,6.1,81,30.53,10.0,East,4.6,-,N/A,,Clear,90,2012-11-12 10:53:00
4:53 AM,10.0,5.0,80,30.55,10.0,NNE,5.8,-,N/A,,Clear,30,2012-11-12 11:53:00
5:53 AM,12.0,5.0,73,30.57,10.0,East,4.6,-,N/A,,Clear,80,2012-11-12 12:53:00
6:53 AM,10.0,3.9,76,30.58,10.0,Calm,Calm,-,N/A,,Clear,0,2012-11-12 13:53:00
7:53 AM,17.1,8.1,68,30.60,10.0,Calm,Calm,-,N/A,,Clear,0,2012-11-12 14:53:00
8:53 AM,21.9,9.0,58,30.61,10.0,Calm,Calm,-,N/A,,Clear,0,2012-11-12 15:53:00
9:53 AM,28.0,9.0,45,30.57,10.0,Calm,Calm,-,N/A,,Clear,0,2012-11-12 16:53:00
10:53 AM,30.9,7.0,37,30.55,10.0,Calm,Calm,-,N/A,,Clear,0,2012-11-12 17:53:00
11:53 AM,36.0,5.0,27,30.51,10.0,Calm,Calm,-,N/A,,Clear,0,2012-11-12 18:53:00
12:53 PM,37.9,6.1,27,30.47,10.0,Calm,Calm,-,N/A,,Clear,0,2012-11-12 19:53:00
1:53 PM,39.9,7.0,26,30.44,10.0,Calm,Calm,-,N/A,,Clear,0,2012-11-12 20:53:00
2:53 PM,41.0,3.0,21,30.43,10.0,Calm,Calm,-,N/A,,Clear,0,2012-11-12 21:53:00
3:53 PM,41.0,8.1,26,30.42,10.0,SW,4.6,-,N/A,,Clear,230,2012-11-12 22:53:00
4:53 PM,37.0,10.9,34,30.43,10.0,SSW,6.9,-,N/A,,Clear,210,2012-11-12 23:53:00
5:53 PM,32.0,10.0,40,30.44,10.0,SW,4.6,-,N/A,,Clear,230,2012-11-13 00:53:00
6:53 PM,28.0,14.0,56,30.48,10.0,Calm,Calm,-,N/A,,Clear,0,2012-11-13 01:53:00
7:53 PM,24.1,15.1,69,30.48,10.0,NE,8.1,-,N/A,,Clear,50,2012-11-13 02:53:00
8:53 PM,24.1,16.0,71,30.47,10.0,NE,4.6,-,N/A,,Clear,50,2012-11-13 03:53:00
9:53 PM,23.0,15.1,72,30.44,10.0,Calm,Calm,-,N/A,,Clear,0,2012-11-13 04:53:00
10:53 PM,21.9,15.1,75,30.43,10.0,East,5.8,-,N/A,,Clear,80,2012-11-13 05:53:00
11:53 PM,21.0,15.1,78,30.41,10.0,ENE,3.5,-,N/A,,Clear,70,2012-11-13 06:53:00